Time,TemperatureF,DewpointF,PressureIn,WindDirection,WindDirectionDegrees,WindSpeedMPH,WindSpeedGustMPH,Humidity,HourlyPrecipIn,Conditions,Clouds,dailyrainin,SoftwareType,DateUTC
2013-02-17 00:01:00,64.0,60.0,30.09,ESE,114,0.0,-999.0,87,-99.99,,,-99.99,,2013-02-17 10:01:00,
2013-02-17 00:11:00,64.0,60.0,30.09,ESE,114,0.0,-999.0,87,-99.99,,,-99.99,,2013-02-17 10:11:00,
2013-02-17 00:21:00,64.0,60.0,30.10,ESE,114,0.0,-999.0,87,-99.99,,,-99.99,,2013-02-17 10:21:00,
2013-02-17 00:31:00,64.0,60.0,30.09,ESE,114,0.0,-999.0,87,-99.99,,,-99.99,,2013-02-17 10:31:00,
2013-02-17 00:41:00,64.0,60.0,30.09,ESE,114,0.0,-999.0,87,-99.99,,,-99.99,,2013-02-17 10:41:00,
2013-02-17 00:51:00,64.0,60.0,30.09,ESE,114,0.0,-999.0,86,-99.99,,,-99.99,,2013-02-17 10:51:00,
2013-02-17 01:01:00,64.0,60.0,30.09,ESE,114,0.0,-999.0,86,-99.99,,,-99.99,,2013-02-17 11:01:00,
2013-02-17 01:11:00,64.0,60.0,30.09,ESE,114,0.0,-999.0,86,-99.99,,,-99.99,,2013-02-17 11:11:00,
2013-02-17 01:21:00,64.0,59.0,30.09,ESE,114,0.0,-999.0,85,-99.99,,,-99.99,,2013-02-17 11:21:00,
2013-02-17 01:32:00,64.0,60.0,30.09,ESE,114,0.0,-999.0,86,-99.99,,,-99.99,,2013-02-17 11:32:00,
2013-02-17 01:41:00,64.0,60.0,30.09,ESE,114,0.0,-999.0,86,-99.99,,,-99.99,,2013-02-17 11:41:00,
2013-02-17 01:52:00,64.0,60.0,30.08,ESE,114,0.0,-999.0,86,-99.99,,,-99.99,,2013-02-17 11:52:00,
2013-02-17 02:02:00,64.0,60.0,30.08,ESE,114,0.0,-999.0,87,-99.99,,,-99.99,,2013-02-17 12:02:00,
2013-02-17 02:11:00,64.0,60.0,30.08,ESE,114,0.0,-999.0,87,-99.99,,,-99.99,,2013-02-17 12:11:00,
2013-02-17 02:22:00,63.0,59.0,30.08,ESE,114,0.0,-999.0,88,-99.99,,,-99.99,,2013-02-17 12:22:00,
2013-02-17 02:31:00,63.0,59.0,30.07,ESE,114,0.0,-999.0,88,-99.99,,,-99.99,,2013-02-17 12:31:00,
2013-02-17 02:42:00,63.0,59.0,30.07,ESE,114,0.0,-999.0,88,-99.99,,,-99.99,,2013-02-17 12:42:00,
2013-02-17 02:52:00,63.0,60.0,30.07,ESE,114,0.0,-999.0,89,-99.99,,,-99.99,,2013-02-17 12:52:00,
2013-02-17 03:02:00,63.0,60.0,30.07,ESE,114,0.0,-999.0,89,-99.99,,,-99.99,,2013-02-17 13:02:00,
2013-02-17 03:11:00,63.0,60.0,30.07,ESE,114,0.0,-999.0,89,-99.99,,,-99.99,,2013-02-17 13:11:00,
2013-02-17 03:21:00,62.0,59.0,30.06,ESE,114,0.0,-999.0,89,-99.99,,,-99.99,,2013-02-17 13:21:00,
2013-02-17 03:32:00,62.0,59.0,30.05,ESE,114,0.0,-999.0,89,-99.99,,,-99.99,,2013-02-17 13:32:00,
2013-02-17 03:41:00,62.0,59.0,30.05,ESE,114,0.0,-999.0,89,-99.99,,,-99.99,,2013-02-17 13:41:00,
2013-02-17 03:51:00,62.0,59.0,30.04,ESE,114,0.0,-999.0,89,-99.99,,,-99.99,,2013-02-17 13:51:00,
2013-02-17 04:01:00,63.0,59.0,30.04,ESE,114,0.0,-999.0,87,-99.99,,,-99.99,,2013-02-17 14:01:00,
2013-02-17 04:11:00,63.0,59.0,30.04,ESE,114,0.0,-999.0,87,-99.99,,,-99.99,,2013-02-17 14:11:00,
2013-02-17 04:21:00,63.0,59.0,30.04,ESE,114,0.0,-999.0,87,-99.99,,,-99.99,,2013-02-17 14:21:00,
2013-02-17 04:32:00,62.0,57.0,30.04,ESE,114,0.0,-999.0,85,-99.99,,,-99.99,,2013-02-17 14:32:00,
2013-02-17 04:42:00,62.0,57.0,30.04,ESE,114,0.0,-999.0,85,-99.99,,,-99.99,,2013-02-17 14:42:00,
2013-02-17 04:52:00,62.0,58.0,30.04,ESE,114,0.0,-999.0,86,-99.99,,,-99.99,,2013-02-17 14:52:00,
2013-02-17 05:01:00,62.0,58.0,30.04,ESE,114,0.0,-999.0,88,-99.99,,,-99.99,,2013-02-17 15:01:00,
2013-02-17 05:11:00,62.0,58.0,30.04,ESE,114,0.0,-999.0,88,-99.99,,,-99.99,,2013-02-17 15:11:00,
2013-02-17 05:21:00,62.0,58.0,30.04,ESE,114,0.0,-999.0,88,-99.99,,,-99.99,,2013-02-17 15:21:00,
2013-02-17 05:31:00,61.0,57.0,30.04,ESE,114,0.0,-999.0,88,-99.99,,,-99.99,,2013-02-17 15:31:00,
2013-02-17 05:41:00,61.0,57.0,30.04,ESE,114,0.0,-999.0,88,-99.99,,,-99.99,,2013-02-17 15:41:00,
2013-02-17 05:52:00,60.0,57.0,30.05,ESE,114,0.0,-999.0,89,-99.99,,,-99.99,,2013-02-17 15:52:00,
2013-02-17 06:01:00,60.0,57.0,30.05,ESE,114,0.0,-999.0,91,-99.99,,,-99.99,,2013-02-17 16:01:00,
2013-02-17 06:11:00,60.0,57.0,30.05,ESE,114,0.0,-999.0,91,-99.99,,,-99.99,,2013-02-17 16:11:00,
2013-02-17 06:21:00,61.0,59.0,30.06,ESE,114,0.0,-999.0,92,-99.99,,,-99.99,,2013-02-17 16:21:00,
2013-02-17 06:31:00,61.0,59.0,30.06,ESE,114,0.0,-999.0,92,-99.99,,,-99.99,,2013-02-17 16:31:00,
2013-02-17 06:41:00,61.0,59.0,30.06,ESE,114,0.0,-999.0,92,-99.99,,,-99.99,,2013-02-17 16:41:00,
2013-02-17 06:51:00,61.0,59.0,30.07,ESE,114,0.0,-999.0,92,-99.99,,,-99.99,,2013-02-17 16:51:00,
2013-02-17 07:02:00,61.0,58.0,30.07,ESE,114,0.0,-999.0,90,-99.99,,,-99.99,,2013-02-17 17:02:00,
2013-02-17 07:11:00,61.0,58.0,30.07,ESE,114,0.0,-999.0,90,-99.99,,,-99.99,,2013-02-17 17:11:00,
2013-02-17 07:21:00,61.0,58.0,30.07,ESE,114,0.0,-999.0,91,-99.99,,,-99.99,,2013-02-17 17:21:00,
2013-02-17 07:31:00,61.0,59.0,30.08,ESE,114,0.0,-999.0,92,-99.99,,,-99.99,,2013-02-17 17:31:00,
2013-02-17 07:41:00,61.0,59.0,30.08,ESE,114,0.0,-999.0,92,-99.99,,,-99.99,,2013-02-17 17:41:00,
2013-02-17 07:52:00,62.0,60.0,30.09,ESE,114,0.0,-999.0,92,-99.99,,,-99.99,,2013-02-17 17:52:00,
2013-02-17 08:01:00,62.0,59.0,30.10,ESE,114,0.0,-999.0,91,-99.99,,,-99.99,,2013-02-17 18:01:00,
2013-02-17 08:11:00,62.0,59.0,30.10,ESE,114,0.0,-999.0,91,-99.99,,,-99.99,,2013-02-17 18:11:00,
2013-02-17 08:21:00,63.0,60.0,30.10,ESE,114,0.0,-999.0,91,-99.99,,,-99.99,,2013-02-17 18:21:00,
2013-02-17 08:33:00,63.0,60.0,30.11,ESE,114,0.0,-999.0,89,-99.99,,,-99.99,,2013-02-17 18:33:00,
2013-02-17 08:42:00,63.0,60.0,30.11,ESE,114,0.0,-999.0,89,-99.99,,,-99.99,,2013-02-17 18:42:00,
2013-02-17 08:52:00,64.0,60.0,30.11,ESE,114,0.0,-999.0,87,-99.99,,,-99.99,,2013-02-17 18:52:00,
2013-02-17 09:01:00,65.0,61.0,30.11,ESE,114,0.0,-999.0,86,-99.99,,,-99.99,,2013-02-17 19:01:00,
2013-02-17 09:11:00,65.0,61.0,30.11,ESE,114,0.0,-999.0,86,-99.99,,,-99.99,,2013-02-17 19:11:00,
2013-02-17 09:21:00,66.0,62.0,30.11,ESE,114,0.0,-999.0,86,-99.99,,,-99.99,,2013-02-17 19:21:00,
2013-02-17 09:32:00,68.0,63.0,30.11,SE,146,0.0,-999.0,84,-99.99,,,-99.99,,2013-02-17 19:32:00,
2013-02-17 09:41:00,68.0,63.0,30.11,SE,146,0.0,-999.0,84,-99.99,,,-99.99,,2013-02-17 19:41:00,
2013-02-17 09:51:00,69.0,64.0,30.12,SE,146,0.0,-999.0,83,-99.99,,,-99.99,,2013-02-17 19:51:00,
2013-02-17 10:01:00,70.0,63.0,30.12,SSE,148,0.0,-999.0,79,-99.99,,,-99.99,,2013-02-17 20:01:00,
2013-02-17 10:11:00,70.0,63.0,30.12,SSE,148,0.0,-999.0,79,-99.99,,,-99.99,,2013-02-17 20:11:00,
2013-02-17 10:21:00,72.0,64.0,30.12,SSE,158,0.0,-999.0,76,-99.99,,,-99.99,,2013-02-17 20:21:00,
2013-02-17 10:31:00,73.0,64.0,30.12,SSE,158,0.0,-999.0,74,-99.99,,,-99.99,,2013-02-17 20:31:00,
2013-02-17 10:42:00,73.0,64.0,30.12,SSE,158,0.0,-999.0,74,-99.99,,,-99.99,,2013-02-17 20:42:00,
2013-02-17 10:52:00,73.0,65.0,30.12,SW,226,0.0,-999.0,76,-99.99,,,-99.99,,2013-02-17 20:52:00,
2013-02-17 11:01:00,73.0,65.0,30.12,WSW,246,0.0,-999.0,77,-99.99,,,-99.99,,2013-02-17 21:01:00,
2013-02-17 11:11:00,73.0,65.0,30.12,WSW,246,0.0,-999.0,77,-99.99,,,-99.99,,2013-02-17 21:11:00,
2013-02-17 11:21:00,74.0,65.0,30.11,South,177,1.0,-999.0,74,-99.99,,,-99.99,,2013-02-17 21:21:00,
2013-02-17 11:31:00,74.0,65.0,30.11,North,355,0.0,-999.0,73,-99.99,,,-99.99,,2013-02-17 21:31:00,
2013-02-17 11:41:00,74.0,65.0,30.11,North,355,0.0,-999.0,73,-99.99,,,-99.99,,2013-02-17 21:41:00,
2013-02-17 11:52:00,73.0,64.0,30.11,SW,221,0.0,-999.0,74,-99.99,,,-99.99,,2013-02-17 21:52:00,
2013-02-17 12:01:00,73.0,63.0,30.11,WNW,284,0.0,-999.0,72,-99.99,,,-99.99,,2013-02-17 22:01:00,
2013-02-17 12:11:00,73.0,63.0,30.11,WNW,284,0.0,-999.0,72,-99.99,,,-99.99,,2013-02-17 22:11:00,
2013-02-17 12:21:00,74.0,65.0,30.10,SSW,198,0.0,-999.0,74,-99.99,,,-99.99,,2013-02-17 22:21:00,
2013-02-17 12:32:00,74.0,66.0,30.09,SSW,205,0.0,-999.0,76,-99.99,,,-99.99,,2013-02-17 22:32:00,
2013-02-17 12:41:00,74.0,66.0,30.09,SSW,205,0.0,-999.0,76,-99.99,,,-99.99,,2013-02-17 22:41:00,
2013-02-17 12:52:00,74.0,65.0,30.08,NW,308,0.0,-999.0,74,-99.99,,,-99.99,,2013-02-17 22:52:00,
2013-02-17 13:01:00,74.0,66.0,30.07,SW,214,0.0,-999.0,76,-99.99,,,-99.99,,2013-02-17 23:01:00,
2013-02-17 13:11:00,74.0,66.0,30.07,SW,214,0.0,-999.0,76,-99.99,,,-99.99,,2013-02-17 23:11:00,
2013-02-17 13:21:00,74.0,66.0,30.07,SSW,195,0.0,-999.0,77,-99.99,,,-99.99,,2013-02-17 23:21:00,
2013-02-17 13:31:00,75.0,66.0,30.06,South,175,0.0,-999.0,74,-99.99,,,-99.99,,2013-02-17 23:31:00,
2013-02-17 13:41:00,75.0,66.0,30.06,South,175,0.0,-999.0,74,-99.99,,,-99.99,,2013-02-17 23:41:00,
2013-02-17 13:52:00,75.0,65.0,30.06,South,180,0.0,-999.0,72,-99.99,,,-99.99,,2013-02-17 23:52:00,
2013-02-17 14:01:00,74.0,65.0,30.06,SSW,202,0.0,-999.0,73,-99.99,,,-99.99,,2013-02-18 00:01:00,
2013-02-17 14:11:00,74.0,65.0,30.06,SSW,202,0.0,-999.0,73,-99.99,,,-99.99,,2013-02-18 00:11:00,
2013-02-17 14:22:00,74.0,66.0,30.05,SSW,202,0.0,-999.0,75,-99.99,,,-99.99,,2013-02-18 00:22:00,
2013-02-17 14:31:00,73.0,65.0,30.04,SSW,192,0.0,-999.0,75,-99.99,,,-99.99,,2013-02-18 00:31:00,
2013-02-17 14:41:00,73.0,65.0,30.04,SSW,192,0.0,-999.0,75,-99.99,,,-99.99,,2013-02-18 00:41:00,
2013-02-17 14:52:00,73.0,65.0,30.04,SSW,202,0.0,-999.0,75,-99.99,,,-99.99,,2013-02-18 00:52:00,
2013-02-17 15:01:00,73.0,65.0,30.03,SSW,201,0.0,-999.0,75,-99.99,,,-99.99,,2013-02-18 01:01:00,
2013-02-17 15:11:00,73.0,65.0,30.03,SSW,201,0.0,-999.0,75,-99.99,,,-99.99,,2013-02-18 01:11:00,
2013-02-17 15:21:00,73.0,65.0,30.03,SSW,200,0.0,-999.0,76,-99.99,,,-99.99,,2013-02-18 01:21:00,
2013-02-17 15:31:00,75.0,66.0,30.03,South,184,1.0,-999.0,74,-99.99,,,-99.99,,2013-02-18 01:31:00,
2013-02-17 15:41:00,75.0,66.0,30.03,South,184,1.0,-999.0,74,-99.99,,,-99.99,,2013-02-18 01:41:00,
2013-02-17 15:51:00,76.0,66.0,30.03,SSW,192,1.0,-999.0,71,-99.99,,,-99.99,,2013-02-18 01:51:00,
2013-02-17 16:01:00,77.0,66.0,30.03,SSW,197,1.0,-999.0,69,-99.99,,,-99.99,,2013-02-18 02:01:00,
2013-02-17 16:11:00,77.0,66.0,30.03,SSW,197,1.0,-999.0,69,-99.99,,,-99.99,,2013-02-18 02:11:00,
2013-02-17 16:21:00,77.0,66.0,30.03,SSW,203,1.0,-999.0,70,-99.99,,,-99.99,,2013-02-18 02:21:00,
2013-02-17 16:31:00,76.0,65.0,30.03,SW,222,1.0,-999.0,70,-99.99,,,-99.99,,2013-02-18 02:31:00,
2013-02-17 16:41:00,76.0,65.0,30.03,SW,222,1.0,-999.0,70,-99.99,,,-99.99,,2013-02-18 02:41:00,
2013-02-17 16:52:00,77.0,66.0,30.03,SSW,205,1.0,-999.0,69,-99.99,,,-99.99,,2013-02-18 02:52:00,
2013-02-17 17:01:00,78.0,65.0,30.03,SSW,200,1.0,-999.0,64,-99.99,,,-99.99,,2013-02-18 03:01:00,
2013-02-17 17:11:00,78.0,65.0,30.03,SSW,200,1.0,-999.0,64,-99.99,,,-99.99,,2013-02-18 03:11:00,
2013-02-17 17:21:00,77.0,64.0,30.04,South,191,1.0,-999.0,64,-99.99,,,-99.99,,2013-02-18 03:21:00,
2013-02-17 17:31:00,76.0,62.0,30.04,South,176,1.0,-999.0,63,-99.99,,,-99.99,,2013-02-18 03:31:00,
2013-02-17 17:41:00,76.0,62.0,30.04,South,176,1.0,-999.0,63,-99.99,,,-99.99,,2013-02-18 03:41:00,
2013-02-17 17:51:00,75.0,63.0,30.06,SSW,202,1.0,-999.0,66,-99.99,,,-99.99,,2013-02-18 03:51:00,
2013-02-17 18:01:00,74.0,63.0,30.06,South,178,1.0,-999.0,68,-99.99,,,-99.99,,2013-02-18 04:01:00,
2013-02-17 18:11:00,74.0,63.0,30.06,South,178,1.0,-999.0,68,-99.99,,,-99.99,,2013-02-18 04:11:00,
2013-02-17 18:21:00,73.0,63.0,30.07,South,184,1.0,-999.0,71,-99.99,,,-99.99,,2013-02-18 04:21:00,
2013-02-17 18:32:00,72.0,63.0,30.07,SSW,198,0.0,-999.0,73,-99.99,,,-99.99,,2013-02-18 04:32:00,
2013-02-17 18:41:00,72.0,63.0,30.07,SSW,198,0.0,-999.0,73,-99.99,,,-99.99,,2013-02-18 04:41:00,
2013-02-17 18:51:00,70.0,61.0,30.08,South,174,0.0,-999.0,74,-99.99,,,-99.99,,2013-02-18 04:51:00,
2013-02-17 19:01:00,69.0,61.0,30.08,SSE,166,0.0,-999.0,75,-99.99,,,-99.99,,2013-02-18 05:01:00,
2013-02-17 19:11:00,69.0,61.0,30.08,SSE,166,0.0,-999.0,75,-99.99,,,-99.99,,2013-02-18 05:11:00,
2013-02-17 19:21:00,69.0,60.0,30.09,SSE,166,0.0,-999.0,74,-99.99,,,-99.99,,2013-02-18 05:21:00,
2013-02-17 19:31:00,68.0,60.0,30.09,SSE,148,0.0,-999.0,75,-99.99,,,-99.99,,2013-02-18 05:31:00,
2013-02-17 19:41:00,68.0,60.0,30.09,SSE,148,0.0,-999.0,75,-99.99,,,-99.99,,2013-02-18 05:41:00,
2013-02-17 19:51:00,67.0,59.0,30.08,SSE,148,0.0,-999.0,76,-99.99,,,-99.99,,2013-02-18 05:51:00,
2013-02-17 20:02:00,67.0,59.0,30.08,SSE,148,0.0,-999.0,76,-99.99,,,-99.99,,2013-02-18 06:02:00,
2013-02-17 20:11:00,67.0,59.0,30.08,SSE,148,0.0,-999.0,76,-99.99,,,-99.99,,2013-02-18 06:11:00,
2013-02-17 20:21:00,66.0,59.0,30.08,SSE,148,0.0,-999.0,77,-99.99,,,-99.99,,2013-02-18 06:21:00,
2013-02-17 20:31:00,66.0,59.0,30.07,SSE,148,0.0,-999.0,78,-99.99,,,-99.99,,2013-02-18 06:31:00,
2013-02-17 20:41:00,65.0,58.0,30.08,SSE,148,0.0,-999.0,79,-99.99,,,-99.99,,2013-02-18 06:41:00,
2013-02-17 20:51:00,65.0,58.0,30.08,SSE,148,0.0,-999.0,79,-99.99,,,-99.99,,2013-02-18 06:51:00,
2013-02-17 21:01:00,66.0,60.0,30.09,SSE,148,0.0,-999.0,80,-99.99,,,-99.99,,2013-02-18 07:01:00,
2013-02-17 21:11:00,66.0,60.0,30.09,SSE,148,0.0,-999.0,80,-99.99,,,-99.99,,2013-02-18 07:11:00,
2013-02-17 21:21:00,65.0,59.0,30.09,SSE,148,0.0,-999.0,80,-99.99,,,-99.99,,2013-02-18 07:21:00,
2013-02-17 21:31:00,65.0,59.0,30.10,SSE,148,0.0,-999.0,82,-99.99,,,-99.99,,2013-02-18 07:31:00,
2013-02-17 21:42:00,65.0,59.0,30.10,SSE,148,0.0,-999.0,82,-99.99,,,-99.99,,2013-02-18 07:42:00,
2013-02-17 21:51:00,65.0,59.0,30.11,SSE,148,0.0,-999.0,82,-99.99,,,-99.99,,2013-02-18 07:51:00,
2013-02-17 22:01:00,66.0,60.0,30.11,SE,134,0.0,-999.0,81,-99.99,,,-99.99,,2013-02-18 08:01:00,
2013-02-17 22:11:00,66.0,60.0,30.11,SE,134,0.0,-999.0,81,-99.99,,,-99.99,,2013-02-18 08:11:00,
2013-02-17 22:21:00,66.0,59.0,30.11,SE,134,0.0,-999.0,79,-99.99,,,-99.99,,2013-02-18 08:21:00,
2013-02-17 22:32:00,65.0,59.0,30.11,SE,134,0.0,-999.0,80,-99.99,,,-99.99,,2013-02-18 08:32:00,
2013-02-17 22:41:00,65.0,59.0,30.11,SE,134,0.0,-999.0,80,-99.99,,,-99.99,,2013-02-18 08:41:00,
2013-02-17 22:52:00,64.0,59.0,30.11,SSE,150,0.0,-999.0,84,-99.99,,,-99.99,,2013-02-18 08:52:00,
2013-02-17 23:02:00,64.0,58.0,30.11,SSE,151,0.0,-999.0,81,-99.99,,,-99.99,,2013-02-18 09:02:00,
2013-02-17 23:11:00,64.0,58.0,30.11,SSE,151,0.0,-999.0,81,-99.99,,,-99.99,,2013-02-18 09:11:00,
2013-02-17 23:22:00,64.0,58.0,30.11,SSE,151,0.0,-999.0,80,-99.99,,,-99.99,,2013-02-18 09:22:00,
2013-02-17 23:31:00,63.0,56.0,30.11,SSE,151,0.0,-999.0,79,-99.99,,,-99.99,,2013-02-18 09:31:00,
2013-02-17 23:41:00,63.0,56.0,30.11,SSE,151,0.0,-999.0,79,-99.99,,,-99.99,,2013-02-18 09:41:00,
2013-02-17 23:51:00,63.0,57.0,30.10,SSE,151,0.0,-999.0,82,-99.99,,,-99.99,,2013-02-18 09:51:00,